SCP
-0 -0 0 0 0 0 0 0 0 0 0 0 0 0 0 0 0 0 0 0 0 0 0 0 0 0 0 0 0 0 0 0 0 0 0 0 0 0 0 0 0 0 0 0 0 0 0 0 0
-0 -0 0 0 0 0 0 0 0 0 0 0 0 0 0 0 0 0 0 0 0 0 0 0 1 1 0 0 0 0 0 0 0 0 0 0 0 0 0 0 0 0 0 0 0 0 0 0 0
-0 0 0 0 0 0 0 0 0 0 0 0 0 0 0 0 0 0 0 0 0 0 0 0 1 1 1 0 0 0 0 0 0 0 0 0 0 0 0 0 0 0 0 0 0 0 0 0 0
0 0 0 0 0 0 0 0 0 0 0 0 0 0 0 0 0 0 0 0 0 0 0 0 1 1 1 1 0 0 0 0 0 0 0 0 0 0 0 0 0 0 0 0 0 0 0 0 0
0 0 0 0 0 0 0 0 0 0 0 0 0 0 0 0 0 0 0 0 0 0 0 0 0 1 0 0 0 0 0 0 0 0 0 0 0 0 0 0 0 0 0 0 0 0 0 0 0
0 0 0 0 0 0 0 0 0 0 0 0 0 0 0 0 0 0 0 0 0 0 0 0 0 0 0 0 0 0 0 0 0 0 0 0 0 0 0 0 0 0 0 0 0 0 0 0 0
0 0 0 0 0 0 0 0 0 0 0 0 0 0 0 0 0 0 0 0 0 0 0 0 0 0 0 0 0 0 0 0 0 0 0 0 0 0 0 0 0 0 0 0 0 0 0 0 0
0 0 0 0 0 0 0 0 0 0 0 0 0 0 0 0 0 0 0 0 0 0 0 0 0 0 0 0 0 0 0 0 0 0 0 0 0 0 0 0 0 0 0 0 0 0 0 0 0
0 0 0 0 0 0 0 0 0 0 0 0 0 0 0 0 0 0 0 0 0 0 0 0 0 0 0 0 0 0 0 0 0 0 0 0 0 0 0 0 0 0 0 0 0 0 0 0 0
0 0 0 0 0 0 0 0 0 0 0 0 0 0 0 0 0 0 0 0 0 0 0 0 0 0 0 0 0 0 0 0 0 0 0 0 0 0 0 0 0 0 0 0 0 0 0 0 0
0 0 0 0 0 0 0 0 0 0 0 0 0 0 0 0 0 0 0 0 0 0 0 0 0 0 0 0 0 0 0 0 0 0 0 0 0 0 0 0 0 0 0 0 0 0 0 0 0
0 0 0 0 0 0 0 0 0 0 0 0 0 0 0 0 0 0 0 0 0 0 0 0 0 0 0 0 0 0 0 0 0 0 0 0 0 0 0 0 0 0 0 0 0 0 0 0 0
0 0 0 0 0 0 0 0 0 0 0 0 0 0 0 0 0 0 0 0 0 0 0 0 0 0 0 0 0 0 0 0 0 0 0 0 0 0 0 0 0 0 0 0 0 0 0 0 0
0 0 0 0 0 0 0 0 0 0 0 0 0 0 0 0 0 0 0 0 0 0 0 0 0 0 0 0 0 0 0 0 0 0 0 0 0 0 0 0 0 0 0 0 0 0 0 0 0
0 0 0 0 0 0 0 0 0 0 0 0 0 0 0 0 0 0 1 0 0 0 0 0 0 0 0 0 0 0 0 0 0 0 0 0 0 0 0 0 0 0 0 0 0 0 0 0 0
0 0 0 0 0 0 0 0 0 0 0 0 0 0 0 0 0 1 0 0 0 0 0 0 1 0 0 0 0 0 0 0 0 0 0 0 0 0 0 0 0 0 0 0 0 0 0 0 0
0 0 0 0 0 0 0 0 0 0 0 0 0 0 0 1 1 1 1 0 0 0 1 1 1 1 1 0 0 0 0 0 0 0 0 0 0 0 0 0 0 0 0 0 0 0 0 0 0
0 0 0 0 0 0 0 0 0 0 0 0 0 1 1 1 1 1 1 1 0 1 1 1 1 1 1 1 0 0 0 0 0 0 0 0 0 0 0 0 0 0 0 0 0 0 0 0 0
0 0 0 0 0 0 0 0 0 0 0 0 0 1 1 1 1 1 1 1 1 1 1 1 1 1 1 1 0 0 0 0 0 0 0 0 0 0 0 0 0 0 0 0 0 0 0 0 0
0 0 0 0 0 0 0 0 0 0 0 0 0 1 1 1 1 1 1 1 1 1 1 1 1 1 1 1 0 0 0 0 0 0 0 0 0 0 0 0 0 0 0 0 0 0 0 0 0
0 0 0 0 0 0 0 0 0 0 0 0 0 1 1 1 1 1 1 1 1 1 1 1 1 1 1 1 0 0 0 0 0 0 0 0 0 0 0 0 0 0 0 0 0 0 0 0 0
0 0 0 0 0 0 0 0 0 0 0 0 1 1 1 1 1 1 1 1 1 1 1 1 1 1 1 1 1 0 0 0 0 0 0 0 0 0 0 0 0 0 0 0 0 0 0 0 0
0 0 0 0 0 0 0 0 0 0 0 0 1 1 1 1 1 1 1 1 1 1 1 1 1 1 1 1 1 1 0 0 0 0 0 0 0 0 0 0 0 0 0 0 0 0 0 0 0
0 0 0 0 0 0 0 0 0 0 0 0 1 1 1 1 1 1 1 2 2 2 2 2 1 1 1 1 1 1 1 0 0 0 0 0 0 0 0 0 0 0 0 0 0 0 0 0 0
0 0 0 0 0 0 0 0 0 0 0 0 1 1 1 1 1 1 1 2 2 2 2 2 1 1 1 1 1 1 1 1 1 0 0 0 0 0 0 0 0 0 0 0 0 0 0 0 0
0 0 0 0 0 0 0 0 0 0 0 0 0 1 1 1 1 1 1 1 2 2 2 2 1 1 1 1 1 1 1 1 1 1 0 0 0 0 0 0 0 0 0 0 0 0 0 0 0
0 0 0 0 0 0 0 0 0 0 0 0 0 1 1 1 1 1 1 1 1 1 1 1 1 1 1 1 1 1 1 1 1 1 1 1 1 1 0 0 0 0 0 0 0 0 0 0 0
0 0 0 0 0 0 0 0 0 0 0 0 0 1 1 1 1 1 1 1 1 1 1 1 1 1 1 1 1 1 1 1 1 1 1 1 1 0 0 0 0 0 0 0 0 0 0 0 0
0 0 0 0 0 0 0 0 0 0 0 0 0 1 1 1 1 1 1 1 1 1 1 1 1 1 1 1 1 1 1 1 1 1 1 0 0 0 0 0 0 0 0 0 0 0 0 0 0
0 0 0 0 0 0 0 0 0 0 0 0 0 1 1 1 2 2 1 1 1 1 1 1 1 1 1 1 1 1 1 1 1 1 0 0 0 0 0 0 0 0 0 0 0 0 0 0 0
Wind_Speed
4 3 2 2 4 5 2 1 2 3 4 5 9 10 9 6 5 5 3 12 14 12 9 12 14 13 12 11 11 10 10 9 9 9 9 9 9 9 8 8 8 8 8 8 7 7 7 7 7
2 3 2 4 5 3 2 1 4 3 7 8 9 10 9 7 7 9 7 11 14 12 9 10 14 13 12 11 10 10 9 9 9 9 9 9 9 8 8 7 7 7 7 6 6 6 6 6 6
2 2 2 4 2 3 2 2 4 5 5 5 5 6 6 7 8 7 9 15 13 11 8 11 15 13 12 11 10 10 9 9 9 8 8 8 8 7 7 7 7 6 6 6 5 5 4 4 6
1 3 4 4 2 4 4 3 4 6 4 6 8 6 5 5 6 10 16 16 14 10 8 11 15 13 12 11 10 9 9 8 8 7 7 7 6 6 6 6 6 5 5 5 5 4 3 4 6
3 4 4 3 3 3 3 3 3 5 3 6 9 7 4 4 14 18 16 15 14 10 7 9 14 13 12 11 10 9 9 8 7 7 6 5 5 4 4 5 4 4 4 4 4 3 4 6 7
4 4 4 2 4 3 2 3 3 7 8 7 9 8 3 8 15 16 15 13 13 12 9 8 13 13 12 11 10 9 8 8 7 6 5 4 3 3 4 4 3 3 3 3 3 3 4 5 6
4 3 2 2 3 3 2 2 5 7 7 6 8 7 5 7 12 14 13 12 11 11 9 7 7 9 11 11 10 9 8 7 6 5 4 3 3 3 3 3 2 2 2 3 2 3 3 3 4
5 3 1 2 2 3 2 1 3 7 6 7 6 9 7 9 11 12 11 10 9 8 7 6 5 5 5 6 9 9 8 7 5 4 3 3 2 2 2 2 2 2 2 2 3 3 3 2 3
3 4 3 4 3 3 2 2 1 3 7 4 3 7 12 15 14 13 10 7 7 7 6 6 6 5 5 5 7 7 7 6 5 3 2 2 0 0 1 1 2 2 3 3 3 2 2 1 2
4 4 7 6 4 2 1 1 2 4 6 5 7 8 13 14 15 14 13 11 9 8 7 7 7 6 5 5 4 3 3 2 2 1 0 0 0 0 1 1 1 1 2 3 2 2 1 1 1
4 6 6 6 5 3 2 1 1 6 3 6 12 14 13 13 13 13 12 12 11 9 8 7 7 6 6 3 3 2 1 1 1 1 1 1 1 1 1 1 1 1 1 1 0 0 0 1 1
3 6 5 5 4 3 4 3 2 4 6 9 13 15 13 13 12 12 11 10 9 9 8 8 8 6 5 4 3 3 2 2 1 1 2 2 1 1 1 1 1 1 1 1 1 0 0 1 2
3 6 6 6 4 4 4 4 4 4 8 11 12 12 12 13 11 9 9 9 9 8 7 7 8 7 5 4 3 3 3 2 2 2 2 2 2 1 1 0 0 1 1 1 1 1 1 2 2
4 5 5 3 3 3 4 3 4 5 10 11 12 11 11 12 11 9 9 9 9 8 7 7 7 6 5 4 3 3 3 2 2 1 2 2 2 1 1 1 0 0 0 1 1 1 2 1 1
3 4 6 3 2 2 4 1 4 8 11 12 11 11 10 10 10 11 11 10 10 9 8 7 7 6 6 5 4 3 3 3 2 2 2 2 2 2 1 1 1 0 0 1 1 1 2 1 2
5 3 3 6 2 2 5 4 5 8 11 10 10 10 10 9 9 10 10 9 9 9 8 7 7 6 5 4 4 3 3 3 2 2 1 2 2 2 2 1 1 0 1 1 1 1 1 1 1
3 2 4 7 3 1 4 4 5 6 10 9 9 9 10 9 8 8 9 10 9 10 9 8 7 6 6 4 3 3 3 2 2 2 2 1 1 2 1 1 0 1 1 1 1 1 2 1 1
4 4 4 5 4 1 2 5 5 5 8 9 9 9 10 11 10 10 10 10 9 9 9 8 7 6 5 4 3 2 2 1 1 2 2 2 1 1 1 1 1 1 2 1 1 1 1 1 1
5 4 6 7 5 0 3 5 6 6 5 7 8 9 10 10 9 9 10 11 9 8 9 9 8 6 5 4 3 2 2 1 1 1 2 2 1 1 2 1 1 1 2 1 1 1 1 1 1
5 6 7 7 5 0 3 4 6 6 9 10 11 10 10 9 8 8 9 10 10 10 9 9 8 7 6 4 3 3 3 1 1 1 1 1 1 2 2 1 1 1 2 2 1 1 1 0 1
6 6 7 6 5 3 2 3 4 4 3 6 8 10 11 13 13 10 9 9 9 10 10 9 9 7 6 5 3 3 2 1 1 0 0 1 1 1 1 1 1 1 2 1 1 2 2 1 0
7 7 6 4 1 3 2 2 7 4 2 4 6 6 9 10 10 10 10 10 10 10 10 9 8 7 7 6 5 5 4 3 3 2 1 1 1 2 1 1 1 1 1 2 2 2 2 2 1
7 6 4 3 2 1 1 2 7 2 3 5 6 8 8 9 10 11 11 10 9 9 9 8 7 7 6 6 6 6 4 3 2 1 2 1 1 1 2 1 2 1 1 1 1 1 1 2 2
4 2 3 3 4 2 5 3 6 4 6 5 5 6 7 8 8 9 8 8 7 7 7 8 7 6 6 6 6 6 5 4 3 2 1 1 0 1 1 1 1 2 1 1 2 1 2 1 2
1 4 3 4 3 5 3 2 7 5 4 6 7 7 6 7 9 9 8 8 7 7 7 7 8 7 7 6 6 6 6 5 5 4 3 2 1 1 2 1 2 2 2 2 1 1 1 2 2
3 8 7 5 4 5 3 3 6 4 2 2 5 6 6 7 9 9 9 8 8 8 7 7 8 7 7 7 6 5 5 4 3 3 3 3 2 2 2 1 1 2 1 1 1 1 1 1 1
3 3 8 7 3 1 3 3 5 3 2 1 2 5 6 7 8 9 8 7 8 8 7 7 7 6 6 6 6 5 4 4 4 3 3 2 2 1 1 1 1 1 1 1 1 1 1 1 1
6 6 5 5 4 2 3 2 3 4 3 2 3 5 5 6 7 8 7 7 7 7 6 6 6 6 5 6 5 4 4 4 4 3 3 2 2 1 1 1 1 1 1 1 1 1 0 0 1
1 2 4 4 5 6 2 5 5 5 3 2 3 4 6 7 8 8 7 6 6 6 6 5 5 5 5 5 4 4 3 3 3 3 3 2 2 2 2 1 1 1 1 1 1 1 0 0 0
5 5 7 5 3 4 4 6 4 4 4 2 2 2 4 5 6 7 7 7 6 6 6 6 5 5 5 4 4 3 3 3 3 3 3 3 2 2 2 2 2 2 1 1 1 1 1 1 1
Wind_Direction
211 188 142 78 50 46 20 309 108 46 54 65 82 90 91 79 112 140 143 137 138 144 147 140 134 129 124 120 116 111 106 101 96 93 91 90 90 89 89 88 87 88 94 100 101 105 112 122 128
213 185 91 59 73 57 305 213 110 114 135 113 88 88 81 70 91 114 126 143 142 144 144 142 137 133 129 126 121 118 112 106 103 100 97 97 96 95 95 96 93 92 92 97 99 102 113 124 132
244 198 88 68 86 166 229 222 146 121 122 112 93 70 81 108 118 135 149 145 140 142 146 146 140 137 134 131 126 122 118 113 111 107 103 100 100 100 99 99 99 96 94 96 99 102 112 138 140
73 46 44 64 246 218 197 223 143 121 84 89 96 71 63 112 127 138 142 144 140 144 148 148 144 143 141 137 132 127 126 124 120 116 112 109 106 104 103 101 100 102 99 97 98 97 88 122 138
69 71 46 1 284 239 227 217 173 126 108 97 99 93 64 81 119 134 144 146 144 145 147 149 147 146 145 142 139 136 134 133 131 128 125 121 116 109 106 102 97 102 103 99 102 96 91 104 119
50 65 68 321 296 293 272 195 133 119 124 122 110 109 105 132 132 143 147 148 145 146 147 149 152 152 151 150 149 146 144 143 142 140 138 135 130 123 115 108 103 102 112 107 105 111 107 108 114
117 104 185 238 290 300 269 143 123 133 140 149 132 111 130 152 147 147 146 143 140 144 147 150 155 156 156 156 155 154 154 154 153 151 150 149 149 143 134 127 129 138 137 136 120 124 121 117 116
145 108 297 278 258 258 240 103 121 136 127 130 127 133 159 174 148 138 135 135 137 142 147 150 152 152 156 162 166 164 164 165 165 167 171 172 173 167 160 166 192 198 189 166 158 153 141 127 117
113 89 241 231 205 240 240 96 63 88 110 119 107 134 158 151 138 130 126 125 139 150 155 157 159 161 164 172 178 173 173 178 175 177 171 176 288 280 189 209 217 226 215 195 188 171 151 115 102
117 166 228 221 205 203 222 139 126 72 75 77 82 104 135 139 140 143 148 150 158 166 173 171 170 172 173 183 173 176 180 181 173 170 163 132 81 347 99 294 253 264 200 189 195 187 163 89 81
177 205 235 249 232 188 178 186 86 107 103 147 143 143 145 145 147 153 161 161 165 167 172 178 176 175 178 176 160 170 170 169 178 175 162 130 106 59 43 13 348 3 79 112 72 1 35 64 101
232 249 237 244 242 194 174 163 115 137 176 165 154 152 152 153 158 162 163 163 161 162 172 179 176 171 174 164 160 159 158 165 177 181 160 130 111 77 57 44 28 39 59 87 64 44 81 99 107
269 262 261 240 219 203 157 155 152 169 158 151 150 153 159 158 160 160 157 155 157 160 171 178 173 167 165 155 158 154 166 170 175 175 166 142 130 130 102 40 47 48 73 93 93 101 107 105 111
254 279 286 266 239 195 147 162 128 176 158 152 156 165 166 161 157 154 158 160 164 164 165 171 166 160 150 149 154 155 162 162 158 160 160 147 143 139 125 105 60 59 103 121 119 113 107 101 111
303 318 318 287 242 221 125 90 179 178 161 160 166 170 165 163 159 162 170 164 164 161 159 162 161 150 147 147 146 145 153 150 149 159 152 138 138 138 133 125 129 149 128 104 87 73 77 90 95
353 359 312 286 244 237 127 216 230 175 164 168 171 170 166 169 170 166 167 161 160 154 155 163 156 146 145 144 137 132 132 133 142 146 142 140 136 135 128 118 152 153 110 101 108 99 86 85 96
352 285 269 287 265 202 137 205 223 187 164 169 169 167 165 169 170 165 164 163 165 160 157 159 149 151 152 147 136 129 127 136 141 132 126 149 142 133 122 126 146 124 103 100 122 103 121 121 107
253 261 269 259 271 162 180 213 216 203 168 168 167 165 167 171 178 171 167 167 166 162 157 157 152 155 153 142 125 108 104 118 119 130 133 131 116 117 125 135 115 114 102 85 79 97 98 125 134
244 271 278 276 278 162 198 209 221 210 184 173 170 168 173 181 181 167 167 165 159 159 159 161 158 162 156 151 149 145 160 153 131 144 142 144 139 125 118 122 115 122 123 131 116 111 98 80 95
257 273 275 289 284 194 202 236 231 206 196 186 181 180 177 179 175 169 165 162 162 167 168 166 167 165 166 169 165 160 155 162 175 172 146 160 152 148 141 134 146 142 126 106 106 118 126 127 110
258 244 250 260 304 351 99 313 283 263 221 195 186 183 181 180 177 173 167 167 165 170 172 171 173 168 166 159 141 121 88 69 51 225 236 221 167 143 134 150 145 139 145 153 152 146 146 155 341
254 249 246 249 255 283 137 245 279 249 233 196 194 187 190 185 177 173 171 173 175 178 173 170 171 169 168 159 152 151 158 177 202 199 199 196 172 165 159 164 151 149 155 157 182 170 156 142 174
232 245 236 225 185 287 305 161 274 264 226 223 202 191 191 185 174 173 174 176 176 173 171 169 165 167 164 163 165 162 172 189 186 160 155 174 200 193 192 184 164 155 165 175 183 171 159 163 168
238 325 354 35 72 277 248 166 268 249 218 213 205 182 185 182 165 161 167 164 164 165 165 165 162 166 164 167 168 168 173 176 163 161 164 184 224 248 236 192 177 180 186 189 196 188 178 184 167
91 90 28 354 4 257 262 161 245 252 210 191 193 182 180 174 157 157 158 159 160 161 163 165 164 169 171 168 173 179 181 179 178 182 177 177 192 224 242 217 199 198 200 200 197 184 196 191 178
203 142 157 190 226 275 322 218 253 267 223 171 171 169 157 153 156 158 164 164 163 161 159 163 167 171 171 171 179 185 182 181 186 186 177 184 199 214 217 207 205 207 204 198 179 193 216 185 193
176 184 173 147 181 239 279 283 313 346 28 45 140 149 153 159 155 154 156 158 159 159 162 163 164 166 173 173 174 180 180 182 186 184 178 186 201 201 179 174 177 196 193 183 164 184 219 196 207
164 163 103 119 160 233 284 260 246 272 285 271 188 174 173 158 154 151 150 155 158 159 160 159 159 168 172 169 173 176 181 184 179 171 180 177 170 157 150 184 191 188 184 158 138 164 254 150 249
143 120 118 133 156 160 219 264 228 197 197 206 220 188 173 160 157 151 146 144 140 137 136 137 151 150 148 151 154 156 165 169 168 169 183 181 172 167 173 175 172 175 188 178 151 177 169 135 304
173 175 146 153 212 168 170 256 266 179 168 164 166 164 154 149 146 141 136 130 126 127 135 144 155 154 155 147 142 146 150 151 153 165 180 172 168 172 170 170 160 172 175 184 168 178 174 178 222